Jacksonville, IL

6:55 PM CDT on October 23, 2019 (GMT -0500)
Jacksonville Municipal

Weather History for KIJX - August, 2019

Change the Weather History Date:

Tuesday, August 27, 2019

  Actual Average (KSPI) Record (KSPI)
Temperature  
Mean Temperature 70 °F -  
Max Temperature 79 °F 83 °F 97 °F (1983)
Min Temperature 60 °F 64 °F 51 °F (1967)
Cooling Degree Days 4    
Growing Degree Days 20 (Base 50)    
Moisture  
Dew Point 64 °F    
Average Humidity 80    
Maximum Humidity 98    
Minimum Humidity 49    
Precipitation  
Precipitation 0.00 in - - ()
Sea Level Pressure  
Sea Level Pressure 29.91 in    
Wind  
Wind Speed 5 mph (West)    
Max Wind Speed 15 mph    
Max Gust Speed 20 mph    
Visibility 9 miles    
Events Thunderstorm    
Averages and records for this station are not official NWS values.
T = Trace of Precipitation, MM = Missing Value Source: NWS Daily Summary

Daily Weather History Graph

Daily Weather History Graph

Search for Another Location

Airport or City:

Astronomy

Aug. 27, 2019 Rise Set
Actual Time 6:24 AM CDT 7:40 PM CDT
Civil Twilight 5:56 AM CDT 8:08 PM CDT
Nautical Twilight 5:22 AM CDT 8:41 PM CDT
Astronomical Twilight 4:47 AM CDT 9:16 PM CDT
Moon 2:49 AM CDT (8/27) 6:00 PM CDT (8/27)
Length of Visible Light 14h 12m
Length of Day
13h 16m
Waning Crescent, 11% of the Moon is Illuminated
Aug 27
Waning Crescent
Aug 30
New
Sep 5
First Quarter
Sep 13
Full
Sep 21
Last Quarter

Hourly Weather History & Observations

Time (CDT) Temp. Dew Point Humidity Pressure Visibility Wind Dir Wind Speed Gust Speed Precip Events Conditions
12:15 AM 69.4 °F 68.2 °F 96% 29.82 in 10.0 mi West 3.5 mph - N/A   Overcast
12:35 AM 69.8 °F 68.5 °F 96% 29.82 in 10.0 mi West 3.5 mph - N/A   Overcast
12:55 AM 69.1 °F 68.0 °F 96% 29.82 in 10.0 mi West 3.5 mph - N/A Thunderstorm Overcast
1:15 AM 68.5 °F 67.6 °F 97% 29.83 in 10.0 mi West 3.5 mph - N/A   Mostly Cloudy
1:35 AM 68.9 °F 67.5 °F 95% 29.83 in 10.0 mi West 3.5 mph - N/A   Scattered Clouds
1:55 AM 68.5 °F 67.1 °F 95% 29.83 in 10.0 mi West 3.5 mph - N/A   Clear
2:15 AM 68.2 °F 67.1 °F 96% 29.83 in 10.0 mi West 3.5 mph - N/A   Mostly Cloudy
2:35 AM 68.0 °F 67.1 °F 97% 29.83 in 10.0 mi West 3.5 mph - N/A   Mostly Cloudy
2:50 AM 68.0 °F 67.1 °F 97% 29.84 in 10.0 mi WSW 3.5 mph - N/A   Scattered Clouds
3:15 AM 67.5 °F 66.6 °F 97% 29.83 in 7.0 mi WSW 3.5 mph - N/A   Clear
3:35 AM 67.5 °F 66.6 °F 97% 29.83 in 10.0 mi WSW 3.5 mph - N/A   Clear
3:55 AM 67.1 °F 66.2 °F 97% 29.84 in 7.0 mi WSW 3.5 mph - N/A   Clear
4:15 AM 67.1 °F 66.2 °F 97% 29.84 in 10.0 mi WSW 3.5 mph - N/A   Clear
4:35 AM 66.7 °F 65.8 °F 97% 29.84 in 7.0 mi Calm Calm - N/A   Clear
4:55 AM 66.4 °F 65.7 °F 98% 29.85 in 7.0 mi West 3.5 mph - N/A   Clear
5:15 AM 65.8 °F 65.3 °F 98% 29.85 in 7.0 mi West 3.5 mph - N/A   Clear
5:35 AM 65.3 °F 64.8 °F 98% 29.85 in 5.0 mi Calm Calm - N/A   Clear
5:55 AM 64.8 °F 64.2 °F 98% 29.86 in 5.0 mi Calm Calm - N/A   Clear
6:15 AM 64.6 °F 64.0 °F 98% 29.86 in 3.0 mi West 3.5 mph - N/A   Clear
6:35 AM 64.0 °F 63.5 °F 98% 29.87 in 4.0 mi West 3.5 mph - N/A   Clear
6:55 AM 64.9 °F 64.4 °F 98% 29.88 in 4.0 mi WSW 3.5 mph - N/A   Clear
7:15 AM 64.9 °F 64.4 °F 98% 29.88 in 3.0 mi WSW 3.5 mph - N/A   Clear
7:35 AM 65.8 °F 65.3 °F 98% 29.88 in 7.0 mi West 3.5 mph - N/A   Clear
7:55 AM 66.4 °F 65.8 °F 98% 29.89 in 7.0 mi West 3.5 mph - N/A   Clear
8:15 AM 67.3 °F 66.4 °F 97% 29.89 in 10.0 mi West 4.6 mph - N/A   Clear
8:35 AM 68.4 °F 66.9 °F 95% 29.89 in 10.0 mi West 4.6 mph - N/A   Clear
8:55 AM 69.8 °F 66.9 °F 91% 29.90 in 10.0 mi West 5.8 mph - N/A   Clear
9:15 AM 70.7 °F 66.7 °F 87% 29.90 in 10.0 mi West 8.1 mph - N/A   Clear
9:35 AM 72.0 °F 66.9 °F 84% 29.90 in 10.0 mi West 6.9 mph - N/A   Clear
9:55 AM 73.0 °F 67.6 °F 83% 29.90 in 10.0 mi West 4.6 mph - N/A   Clear
10:15 AM 73.8 °F 67.5 °F 81% 29.91 in 10.0 mi West 4.6 mph - N/A   Clear
10:35 AM 74.7 °F 67.3 °F 78% 29.91 in 10.0 mi West 5.8 mph - N/A   Clear
10:55 AM 75.4 °F 66.7 °F 74% 29.91 in 10.0 mi West 4.6 mph - N/A   Clear
11:15 AM 76.5 °F 66.7 °F 72% 29.92 in 10.0 mi West 6.9 mph - N/A   Clear
11:35 AM 76.6 °F 66.6 °F 71% 29.92 in 10.0 mi West 5.8 mph - N/A   Scattered Clouds
11:55 AM 77.7 °F 66.2 °F 68% 29.92 in 10.0 mi West 5.8 mph - N/A   Scattered Clouds
12:15 PM 77.4 °F 66.7 °F 70% 29.91 in 10.0 mi West 6.9 mph - N/A   Scattered Clouds
12:35 PM 77.5 °F 65.8 °F 67% 29.92 in 10.0 mi West 9.2 mph - N/A   Scattered Clouds
1:15 PM 77.4 °F 63.3 °F 62% 29.92 in 10.0 mi WNW 8.1 mph - N/A   Scattered Clouds
1:35 PM 77.5 °F 65.1 °F 65% 29.92 in 10.0 mi West 9.2 mph - N/A   Mostly Cloudy
1:55 PM 77.4 °F 64.9 °F 65% 29.93 in 10.0 mi West 6.9 mph - N/A   Mostly Cloudy
2:15 PM 77.7 °F 63.7 °F 62% 29.93 in 10.0 mi WNW 10.4 mph - N/A   Mostly Cloudy
2:35 PM 77.0 °F 60.3 °F 56% 29.93 in 10.0 mi WNW 10.4 mph 17.3 mph N/A   Scattered Clouds
2:55 PM 78.3 °F 63.0 °F 59% 29.93 in 10.0 mi WNW 13.8 mph 17.3 mph N/A   Scattered Clouds
3:15 PM 78.4 °F 60.4 °F 54% 29.93 in 10.0 mi WNW 13.8 mph 19.6 mph N/A   Scattered Clouds
3:35 PM 77.9 °F 59.5 °F 53% 29.93 in 10.0 mi WNW 13.8 mph 18.4 mph N/A   Clear
3:55 PM 78.8 °F 58.5 °F 50% 29.92 in 10.0 mi West 15.0 mph 19.6 mph N/A   Clear
4:15 PM 78.6 °F 57.9 °F 49% 29.93 in 10.0 mi West 11.5 mph 16.1 mph N/A   Scattered Clouds
4:35 PM 78.4 °F 59.4 °F 52% 29.93 in 10.0 mi WNW 6.9 mph - N/A   Clear
4:55 PM 78.3 °F 57.9 °F 49% 29.93 in 10.0 mi West 11.5 mph 17.3 mph N/A   Clear
5:15 PM 77.9 °F 59.0 °F 52% 29.94 in 10.0 mi WNW 9.2 mph - N/A   Clear
5:35 PM 77.5 °F 59.4 °F 53% 29.95 in 10.0 mi WNW 10.4 mph - N/A   Scattered Clouds
5:55 PM 77.2 °F 58.8 °F 53% 29.94 in 10.0 mi West 8.1 mph - N/A   Clear
6:15 PM 76.6 °F 59.5 °F 55% 29.94 in 10.0 mi West 4.6 mph - N/A   Clear
6:35 PM 75.7 °F 59.2 °F 56% 29.95 in 10.0 mi West 5.8 mph - N/A   Clear
6:55 PM 74.7 °F 59.7 °F 60% 29.95 in 10.0 mi West 4.6 mph - N/A   Clear
7:15 PM 72.5 °F 60.6 °F 66% 29.95 in 10.0 mi WSW 4.6 mph - N/A   Clear
7:35 PM 70.3 °F 61.2 °F 73% 29.95 in 10.0 mi SW 4.6 mph - N/A   Clear
7:55 PM 69.1 °F 61.5 °F 77% 29.95 in 10.0 mi SW 4.6 mph - N/A   Clear
8:15 PM 68.0 °F 61.9 °F 81% 29.96 in 10.0 mi SW 4.6 mph - N/A   Mostly Cloudy
8:35 PM 67.5 °F 61.9 °F 82% 29.96 in 10.0 mi SW 4.6 mph - N/A   Overcast
8:55 PM 68.0 °F 62.1 °F 81% 29.97 in 10.0 mi WSW 4.6 mph - N/A   Mostly Cloudy
9:15 PM 68.0 °F 61.7 °F 80% 29.98 in 10.0 mi West 3.5 mph - N/A   Mostly Cloudy
9:35 PM 65.3 °F 61.7 °F 88% 29.98 in 10.0 mi West 4.6 mph - N/A   Clear
9:55 PM 66.0 °F 60.8 °F 83% 29.99 in 10.0 mi WSW 3.5 mph - N/A   Clear
10:15 PM 63.3 °F 60.3 °F 90% 29.99 in 10.0 mi West 3.5 mph - N/A   Clear
10:35 PM 64.6 °F 59.9 °F 85% 30.00 in 10.0 mi West 5.8 mph - N/A   Clear
10:50 PM 63.7 °F 59.9 °F 87% 30.00 in 10.0 mi West 5.8 mph - N/A   Clear
11:10 PM 62.1 °F 59.4 °F 91% 30.00 in 10.0 mi WSW 3.5 mph - N/A   Clear
11:30 PM 61.7 °F 59.2 °F 91% 30.00 in 10.0 mi WSW 3.5 mph - N/A   Clear
11:55 PM 60.8 °F 59.0 °F 94% 30.01 in 10.0 mi WSW 4.6 mph - N/A   Clear